• In Uzbekistan
  • List of Countries
  • For 7 days
  • Water Temperature
  • Satellite Maps
  • Weather Map
  • Weather Widgets
  • user-avatar
    Login

    Hourly Weather Szombathely

    Today, 15 December, Friday

    Time Temperature Precipitation Wind Pressure Humidity
    00:00 +2°C° 0 mm 3 mps 731 mmHg 89%
    01:00 +3°C° 0 mm 2 mps 731 mmHg 89%
    02:00 +2°C° 0 mm 3 mps 731 mmHg 90%
    03:00 +3°C° 0 mm 3 mps 730 mmHg 91%
    04:00 +3°C° 0 mm 4 mps 729 mmHg 92%
    05:00 +4°C° 0 mm 4 mps 729 mmHg 91%
    06:00 +4°C° 0 mm 4 mps 729 mmHg 90%
    07:00 +3°C° 0 mm 2 mps 729 mmHg 93%
    08:00 +4°C° 0.1 mm 2 mps 730 mmHg 90%
    09:00 +5°C° 0.1 mm 2 mps 730 mmHg 86%
    10:00 +6°C° 0.1 mm 2 mps 731 mmHg 83%
    11:00 +6°C° 0.4 mm 2 mps 731 mmHg 82%
    12:00 +6°C° 0.4 mm 2 mps 731 mmHg 82%
    13:00 +5°C° 0.4 mm 2 mps 731 mmHg 82%
    14:00 +5°C° 0.1 mm 2 mps 731 mmHg 80%
    15:00 +5°C° 0.1 mm 2 mps 731 mmHg 79%
    16:00 +5°C° 0.1 mm 2 mps 732 mmHg 78%
    17:00 +5°C° 0.2 mm 2 mps 732 mmHg 78%
    18:00 +4°C° 0.2 mm 2 mps 732 mmHg 78%
    19:00 +3°C° 0.2 mm 3 mps 732 mmHg 78%
    20:00 +3°C° 0.4 mm 3 mps 732 mmHg 78%
    21:00 +3°C° 0.4 mm 3 mps 732 mmHg 79%
    22:00 +3°C° 0.4 mm 3 mps 732 mmHg 80%
    23:00 +2°C° 0.3 mm 3 mps 731 mmHg 79%

    Tomorrow, 16 December, Saturday

    Time Temperature Precipitation Wind Pressure Humidity
    00:00 +2°C° 0.3 mm 3 mps 731 mmHg 79%
    01:00 +2°C° 0.3 mm 3 mps 731 mmHg 78%
    02:00 +2°C° 0.2 mm 3 mps 731 mmHg 78%
    03:00 +2°C° 0.2 mm 3 mps 731 mmHg 79%
    04:00 +2°C° 0.2 mm 3 mps 731 mmHg 79%
    05:00 +2°C° 0.2 mm 3 mps 732 mmHg 79%
    06:00 +2°C° 0.2 mm 3 mps 732 mmHg 80%
    07:00 +2°C° 0.2 mm 3 mps 732 mmHg 80%
    08:00 +2°C° 0 mm 3 mps 733 mmHg 79%
    09:00 +2°C° 0 mm 3 mps 734 mmHg 77%
    10:00 +3°C° 0 mm 3 mps 735 mmHg 76%
    11:00 +3°C° 0 mm 3 mps 735 mmHg 73%
    12:00 +4°C° 0 mm 3 mps 736 mmHg 71%
    13:00 +4°C° 0 mm 3 mps 736 mmHg 69%
    14:00 +5°C° 0 mm 2 mps 737 mmHg 72%
    15:00 +4°C° 0 mm 2 mps 737 mmHg 75%
    16:00 +4°C° 0 mm 1 mps 738 mmHg 78%
    17:00 +3°C° 0 mm 2 mps 738 mmHg 79%
    18:00 +2°C° 0 mm 2 mps 739 mmHg 80%
    19:00 +2°C° 0 mm 2 mps 740 mmHg 81%
    20:00 +2°C° 0 mm 2 mps 740 mmHg 82%
    21:00 +1°C° 0 mm 2 mps 741 mmHg 83%
    22:00 +1°C° 0 mm 2 mps 741 mmHg 84%
    23:00 +1°C° 0 mm 2 mps 742 mmHg 84%

    Day after tomorrow, 17 December, Sunday

    Time Temperature Precipitation Wind Pressure Humidity
    00:00 -1°C° 0 mm 2 mps 742 mmHg 84%
    01:00 -1°C° 0 mm 2 mps 742 mmHg 84%
    02:00 -1°C° 0 mm 2 mps 743 mmHg 83%
    03:00 -1°C° 0 mm 2 mps 743 mmHg 83%
    04:00 -1°C° 0 mm 2 mps 743 mmHg 83%
    05:00 -1°C° 0 mm 2 mps 743 mmHg 82%
    06:00 -1°C° 0 mm 2 mps 744 mmHg 81%
    07:00 -1°C° 0 mm 2 mps 744 mmHg 81%
    08:00 0°C° 0 mm 3 mps 745 mmHg 77%
    09:00 +1°C° 0 mm 3 mps 745 mmHg 72%
    10:00 +2°C° 0 mm 3 mps 746 mmHg 68%
    11:00 +1°C° 0 mm 4 mps 746 mmHg 65%
    12:00 +3°C° 0 mm 4 mps 746 mmHg 62%
    13:00 +4°C° 0 mm 4 mps 746 mmHg 58%
    14:00 +3°C° 0 mm 4 mps 746 mmHg 63%
    15:00 +2°C° 0 mm 3 mps 746 mmHg 68%
    16:00 +1°C° 0 mm 3 mps 747 mmHg 72%
    17:00 0°C° 0 mm 3 mps 747 mmHg 74%
    18:00 0°C° 0 mm 3 mps 748 mmHg 76%
    19:00 -1°C° 0 mm 3 mps 749 mmHg 77%
    20:00 -1°C° 0 mm 3 mps 749 mmHg 77%
    21:00 -1°C° 0 mm 3 mps 750 mmHg 77%
    22:00 -1°C° 0 mm 3 mps 750 mmHg 77%
    23:00 -1°C° 0 mm 3 mps 750 mmHg 77%

    18 December, Monday

    Time Temperature Precipitation Wind Pressure Humidity
    00:00 -1°C° 0 mm 3 mps 751 mmHg 77%
    01:00 -1°C° 0 mm 2 mps 751 mmHg 77%
    02:00 -2°C° 0 mm 2 mps 751 mmHg 77%
    03:00 -2°C° 0 mm 2 mps 750 mmHg 77%
    04:00 -2°C° 0 mm 2 mps 750 mmHg 76%
    05:00 -2°C° 0 mm 2 mps 750 mmHg 76%
    06:00 -2°C° 0 mm 2 mps 750 mmHg 75%
    07:00 -2°C° 0 mm 2 mps 750 mmHg 74%
    08:00 -1°C° 0 mm 2 mps 750 mmHg 71%
    09:00 +1°C° 0 mm 2 mps 749 mmHg 67%
    10:00 0°C° 0 mm 3 mps 749 mmHg 64%
    11:00 +1°C° 0.1 mm 3 mps 748 mmHg 62%
    12:00 +1°C° 0.1 mm 3 mps 748 mmHg 61%
    13:00 0°C° 0.1 mm 4 mps 747 mmHg 59%
    14:00 +1°C° 0.2 mm 3 mps 747 mmHg 64%
    15:00 +1°C° 0.2 mm 3 mps 746 mmHg 68%
    16:00 +1°C° 0.2 mm 2 mps 746 mmHg 72%
    17:00 +1°C° 0.1 mm 2 mps 746 mmHg 74%
    18:00 +1°C° 0.1 mm 2 mps 747 mmHg 76%
    19:00 +1°C° 0.1 mm 2 mps 747 mmHg 79%
    20:00 -1°C° 0 mm 2 mps 747 mmHg 80%
    21:00 -1°C° 0 mm 2 mps 748 mmHg 81%
    22:00 -1°C° 0 mm 2 mps 749 mmHg 82%
    23:00 -1°C° 0 mm 2 mps 749 mmHg 82%

    19 December, Tuesday

    Time Temperature Precipitation Wind Pressure Humidity
    00:00 +1°C° 0 mm 1 mps 749 mmHg 83%
    01:00 +1°C° 0 mm 1 mps 749 mmHg 84%
    02:00 -1°C° 0 mm 2 mps 750 mmHg 84%
    03:00 -1°C° 0 mm 2 mps 750 mmHg 84%
    04:00 -1°C° 0 mm 2 mps 751 mmHg 84%
    05:00 -1°C° 0 mm 2 mps 751 mmHg 84%
    06:00 +1°C° 0 mm 2 mps 751 mmHg 83%
    07:00 +1°C° 0 mm 2 mps 752 mmHg 82%
    08:00 +2°C° 0 mm 2 mps 752 mmHg 80%
    09:00 +2°C° 0 mm 2 mps 753 mmHg 77%
    10:00 +3°C° 0 mm 2 mps 753 mmHg 74%
    11:00 +2°C° 0 mm 3 mps 753 mmHg 73%
    12:00 +3°C° 0 mm 3 mps 752 mmHg 72%
    13:00 +4°C° 0 mm 3 mps 752 mmHg 70%
    14:00 +3°C° 0.1 mm 3 mps 752 mmHg 73%
    15:00 +2°C° 0.1 mm 3 mps 752 mmHg 76%
    16:00 +3°C° 0.1 mm 2 mps 752 mmHg 79%
    17:00 +2°C° 0.1 mm 3 mps 752 mmHg 79%
    18:00 +1°C° 0.1 mm 3 mps 753 mmHg 80%
    19:00 +1°C° 0.1 mm 3 mps 753 mmHg 80%
    20:00 +1°C° 0.1 mm 3 mps 753 mmHg 80%
    21:00 0°C° 0.1 mm 4 mps 754 mmHg 80%
    22:00 0°C° 0.1 mm 4 mps 754 mmHg 81%
    23:00 +1°C° 0 mm 3 mps 754 mmHg 82%

    20 December, Wednesday

    Time Temperature Precipitation Wind Pressure Humidity
    00:00 0°C° 0 mm 3 mps 754 mmHg 83%
    01:00 0°C° 0 mm 3 mps 754 mmHg 84%
    02:00 0°C° 0 mm 3 mps 754 mmHg 85%
    03:00 +1°C° 0 mm 2 mps 754 mmHg 85%
    04:00 +1°C° 0 mm 2 mps 754 mmHg 86%
    05:00 +1°C° 0 mm 2 mps 754 mmHg 87%
    06:00 +2°C° 0 mm 1 mps 754 mmHg 88%
    07:00 +2°C° 0 mm 1 mps 755 mmHg 88%
    08:00 +2°C° 0 mm 1 mps 755 mmHg 87%
    09:00 +3°C° 0 mm 1 mps 755 mmHg 86%
    10:00 +3°C° 0 mm 1 mps 755 mmHg 85%
    11:00 +3°C° 0 mm 1 mps 755 mmHg 83%
    12:00 +4°C° 0 mm 1 mps 755 mmHg 82%
    13:00 +4°C° 0 mm 1 mps 755 mmHg 81%
    14:00 +4°C° 0 mm 1 mps 755 mmHg 84%
    15:00 +3°C° 0 mm 1 mps 755 mmHg 86%
    16:00 +2°C° 0 mm 0 mps 755 mmHg 89%
    17:00 +3°C° 0 mm 1 mps 755 mmHg 89%
    18:00 +3°C° 0 mm 1 mps 755 mmHg 89%
    19:00 +3°C° 0 mm 1 mps 756 mmHg 89%
    20:00 +3°C° 0.1 mm 1 mps 756 mmHg 89%
    21:00 +3°C° 0.1 mm 1 mps 756 mmHg 90%
    22:00 +3°C° 0.1 mm 1 mps 756 mmHg 90%
    23:00 +3°C° 0.3 mm 1 mps 756 mmHg 90%
    Show more